Time,TemperatureF,DewpointF,PressureIn,WindDirection,WindDirectionDegrees,WindSpeedMPH,WindSpeedGustMPH,Humidity,HourlyPrecipIn,Conditions,Clouds,dailyrainin,SoftwareType,DateUTC
2013-02-13 00:03:00,27.0,20.0,29.69,SSW,209,2.0,4.0,73,0.00,,,0.00,Meteo,2013-02-13 06:03:00,
2013-02-13 00:08:00,27.0,20.0,29.69,SSW,201,4.0,6.0,73,0.00,,,0.00,Meteo,2013-02-13 06:08:00,
2013-02-13 00:13:00,27.0,20.0,29.70,SSW,193,3.0,7.0,73,0.00,,,0.00,Meteo,2013-02-13 06:13:00,
2013-02-13 00:18:00,27.0,20.0,29.69,SSW,208,2.0,4.0,73,0.00,,,0.00,Meteo,2013-02-13 06:18:00,
2013-02-13 00:23:00,27.0,20.0,29.69,SSW,210,3.0,6.0,73,0.00,,,0.00,Meteo,2013-02-13 06:23:00,
2013-02-13 00:28:00,27.0,20.0,29.69,SSW,213,3.0,7.0,73,0.00,,,0.00,Meteo,2013-02-13 06:28:00,
2013-02-13 00:33:00,27.0,20.0,29.69,WSW,251,1.0,5.0,73,0.00,,,0.00,Meteo,2013-02-13 06:33:00,
2013-02-13 00:38:00,27.0,20.0,29.69,SSW,212,3.0,5.0,73,0.00,,,0.00,Meteo,2013-02-13 06:38:00,
2013-02-13 00:43:00,27.0,20.0,29.69,SW,220,3.0,7.0,73,0.00,,,0.00,Meteo,2013-02-13 06:43:00,
2013-02-13 00:48:00,27.0,20.0,29.69,WSW,248,1.0,4.0,73,0.00,,,0.00,Meteo,2013-02-13 06:48:00,
2013-02-13 00:53:00,27.0,20.0,29.70,SW,224,2.0,4.0,73,0.00,,,0.00,Meteo,2013-02-13 06:53:00,
2013-02-13 00:58:00,27.0,20.0,29.69,SW,214,3.0,5.0,73,0.00,,,0.00,Meteo,2013-02-13 06:58:00,
2013-02-13 01:03:00,27.0,20.0,29.69,SSW,206,2.0,3.0,73,0.00,,,0.00,Meteo,2013-02-13 07:03:00,
2013-02-13 01:08:00,27.0,20.0,29.69,SSW,197,3.0,7.0,73,0.00,,,0.00,Meteo,2013-02-13 07:08:00,
2013-02-13 01:13:00,27.0,20.0,29.69,SW,218,4.0,5.0,73,0.00,,,0.00,Meteo,2013-02-13 07:13:00,
2013-02-13 01:19:00,27.0,20.0,29.69,South,187,4.0,6.0,74,0.00,,,0.00,Meteo,2013-02-13 07:19:00,
2013-02-13 01:24:00,26.0,19.0,29.69,SSW,207,1.0,4.0,74,0.00,,,0.00,Meteo,2013-02-13 07:24:00,
2013-02-13 01:29:00,26.0,19.0,29.68,South,181,3.0,7.0,74,0.00,,,0.00,Meteo,2013-02-13 07:29:00,
2013-02-13 01:34:00,26.0,19.0,29.68,SW,219,3.0,5.0,74,0.00,,,0.00,Meteo,2013-02-13 07:34:00,
2013-02-13 01:39:00,26.0,19.0,29.68,SW,218,1.0,2.0,74,0.00,,,0.00,Meteo,2013-02-13 07:39:00,
2013-02-13 01:44:00,26.0,19.0,29.68,SSW,211,3.0,6.0,74,0.00,,,0.00,Meteo,2013-02-13 07:44:00,
2013-02-13 01:49:00,26.0,19.0,29.69,SSW,211,3.0,4.0,74,0.00,,,0.00,Meteo,2013-02-13 07:49:00,
2013-02-13 01:54:00,26.0,19.0,29.68,SW,218,4.0,7.0,74,0.00,,,0.00,Meteo,2013-02-13 07:54:00,
2013-02-13 01:59:00,26.0,19.0,29.68,SSW,197,2.0,4.0,74,0.00,,,0.00,Meteo,2013-02-13 07:59:00,
2013-02-13 02:04:00,26.0,19.0,29.68,SSW,208,3.0,6.0,74,0.00,,,0.00,Meteo,2013-02-13 08:04:00,
2013-02-13 02:09:00,26.0,19.0,29.68,SSW,213,5.0,9.0,74,0.00,,,0.00,Meteo,2013-02-13 08:09:00,
2013-02-13 02:14:00,26.0,19.0,29.68,SSW,196,3.0,7.0,74,0.00,,,0.00,Meteo,2013-02-13 08:14:00,
2013-02-13 02:19:00,26.0,19.0,29.68,SW,217,4.0,7.0,74,0.00,,,0.00,Meteo,2013-02-13 08:19:00,
2013-02-13 02:24:00,26.0,19.0,29.68,SW,236,3.0,5.0,74,0.00,,,0.00,Meteo,2013-02-13 08:24:00,
2013-02-13 02:29:00,26.0,19.0,29.68,SSW,212,3.0,5.0,74,0.00,,,0.00,Meteo,2013-02-13 08:29:00,
2013-02-13 02:34:00,26.0,19.0,29.68,SSW,207,3.0,5.0,74,0.00,,,0.00,Meteo,2013-02-13 08:34:00,
2013-02-13 02:39:00,26.0,19.0,29.68,SSW,196,2.0,5.0,74,0.00,,,0.00,Meteo,2013-02-13 08:39:00,
2013-02-13 02:44:00,26.0,19.0,29.68,SSW,197,2.0,4.0,74,0.00,,,0.00,Meteo,2013-02-13 08:44:00,
2013-02-13 02:49:00,26.0,19.0,29.68,South,190,2.0,4.0,74,0.00,,,0.00,Meteo,2013-02-13 08:49:00,
2013-02-13 02:55:00,26.0,19.0,29.68,SW,215,2.0,4.0,75,0.00,,,0.00,Meteo,2013-02-13 08:55:00,
2013-02-13 03:00:00,26.0,19.0,29.68,SW,216,3.0,6.0,75,0.00,,,0.00,Meteo,2013-02-13 09:00:00,
2013-02-13 03:05:00,26.0,19.0,29.68,SSW,192,1.0,3.0,75,0.00,,,0.00,Meteo,2013-02-13 09:05:00,
2013-02-13 03:10:00,26.0,19.0,29.68,South,191,2.0,4.0,75,0.00,,,0.00,Meteo,2013-02-13 09:10:00,
2013-02-13 03:15:00,26.0,19.0,29.68,SSW,200,2.0,4.0,76,0.00,,,0.00,Meteo,2013-02-13 09:15:00,
2013-02-13 03:20:00,25.0,19.0,29.68,South,189,3.0,5.0,76,0.00,,,0.00,Meteo,2013-02-13 09:20:00,
2013-02-13 03:25:00,25.0,19.0,29.67,SSW,198,2.0,5.0,76,0.00,,,0.00,Meteo,2013-02-13 09:25:00,
2013-02-13 03:30:00,25.0,19.0,29.67,SSW,208,3.0,5.0,76,0.00,,,0.00,Meteo,2013-02-13 09:30:00,
2013-02-13 03:35:00,25.0,19.0,29.67,SSW,195,5.0,7.0,76,0.00,,,0.00,Meteo,2013-02-13 09:35:00,
2013-02-13 03:40:00,25.0,19.0,29.67,SSW,205,2.0,4.0,76,0.00,,,0.00,Meteo,2013-02-13 09:40:00,
2013-02-13 03:45:00,25.0,19.0,29.67,SSW,208,5.0,8.0,76,0.00,,,0.00,Meteo,2013-02-13 09:45:00,
2013-02-13 03:50:00,25.0,19.0,29.67,SSW,206,3.0,5.0,76,0.00,,,0.00,Meteo,2013-02-13 09:50:00,
2013-02-13 03:55:00,25.0,19.0,29.67,SSW,197,3.0,7.0,76,0.00,,,0.00,Meteo,2013-02-13 09:55:00,
2013-02-13 04:00:00,25.0,19.0,29.67,South,185,3.0,6.0,76,0.00,,,0.00,Meteo,2013-02-13 10:00:00,
2013-02-13 04:05:00,25.0,19.0,29.67,SSW,193,3.0,5.0,76,0.00,,,0.00,Meteo,2013-02-13 10:05:00,
2013-02-13 04:10:00,25.0,19.0,29.67,South,184,3.0,4.0,76,0.00,,,0.00,Meteo,2013-02-13 10:10:00,
2013-02-13 04:15:00,25.0,19.0,29.67,SSW,212,1.0,2.0,76,0.00,,,0.00,Meteo,2013-02-13 10:15:00,
2013-02-13 04:20:00,25.0,19.0,29.67,SSW,192,1.0,2.0,76,0.00,,,0.00,Meteo,2013-02-13 10:20:00,
2013-02-13 04:25:00,25.0,19.0,29.67,SSW,204,1.0,2.0,76,0.00,,,0.00,Meteo,2013-02-13 10:25:00,
2013-02-13 04:30:00,25.0,19.0,29.67,SW,222,1.0,3.0,76,0.00,,,0.00,Meteo,2013-02-13 10:30:00,
2013-02-13 04:35:00,25.0,19.0,29.67,SSW,196,2.0,3.0,76,0.00,,,0.00,Meteo,2013-02-13 10:35:00,
2013-02-13 04:40:00,25.0,19.0,29.67,SW,216,3.0,6.0,76,0.00,,,0.00,Meteo,2013-02-13 10:40:00,
2013-02-13 04:46:00,25.0,19.0,29.67,SSW,205,3.0,4.0,76,0.00,,,0.00,Meteo,2013-02-13 10:46:00,
2013-02-13 04:51:00,25.0,19.0,29.67,SSW,212,2.0,4.0,76,0.00,,,0.00,Meteo,2013-02-13 10:51:00,
2013-02-13 04:56:00,25.0,19.0,29.67,SSW,206,3.0,5.0,76,0.00,,,0.00,Meteo,2013-02-13 10:56:00,
2013-02-13 05:01:00,25.0,19.0,29.67,SW,214,2.0,4.0,76,0.00,,,0.00,Meteo,2013-02-13 11:01:00,
2013-02-13 05:06:00,25.0,19.0,29.67,SSW,200,2.0,6.0,76,0.00,,,0.00,Meteo,2013-02-13 11:06:00,
2013-02-13 05:11:00,25.0,19.0,29.67,SSW,192,2.0,4.0,76,0.00,,,0.00,Meteo,2013-02-13 11:11:00,
2013-02-13 05:16:00,25.0,19.0,29.66,South,182,2.0,3.0,76,0.00,,,0.00,Meteo,2013-02-13 11:16:00,
2013-02-13 05:21:00,25.0,19.0,29.66,South,191,2.0,3.0,76,0.00,,,0.00,Meteo,2013-02-13 11:21:00,
2013-02-13 05:26:00,24.0,18.0,29.66,South,182,2.0,4.0,76,0.00,,,0.00,Meteo,2013-02-13 11:26:00,
2013-02-13 05:31:00,24.0,18.0,29.66,SSW,198,3.0,6.0,76,0.00,,,0.00,Meteo,2013-02-13 11:31:00,
2013-02-13 05:36:00,24.0,18.0,29.66,South,186,3.0,5.0,76,0.00,,,0.00,Meteo,2013-02-13 11:36:00,
2013-02-13 05:41:00,24.0,18.0,29.66,SSW,201,4.0,5.0,77,0.00,,,0.00,Meteo,2013-02-13 11:41:00,
2013-02-13 05:46:00,24.0,18.0,29.66,SSW,194,3.0,6.0,77,0.00,,,0.00,Meteo,2013-02-13 11:46:00,
2013-02-13 05:51:00,24.0,18.0,29.66,South,190,2.0,4.0,77,0.00,,,0.00,Meteo,2013-02-13 11:51:00,
2013-02-13 05:56:00,24.0,18.0,29.66,South,181,2.0,4.0,77,0.00,,,0.00,Meteo,2013-02-13 11:56:00,
2013-02-13 06:01:00,24.0,18.0,29.66,SSW,207,2.0,3.0,77,0.00,,,0.00,Meteo,2013-02-13 12:01:00,
2013-02-13 06:06:00,24.0,18.0,29.66,SSW,200,2.0,3.0,77,0.00,,,0.00,Meteo,2013-02-13 12:06:00,
2013-02-13 06:11:00,24.0,18.0,29.66,SSW,210,1.0,2.0,77,0.00,,,0.00,Meteo,2013-02-13 12:11:00,
2013-02-13 06:16:00,24.0,18.0,29.65,South,184,1.0,2.0,77,0.00,,,0.00,Meteo,2013-02-13 12:16:00,
2013-02-13 06:21:00,24.0,18.0,29.65,South,179,1.0,2.0,77,0.00,,,0.00,Meteo,2013-02-13 12:21:00,
2013-02-13 06:26:00,24.0,18.0,29.65,South,180,2.0,3.0,77,0.00,,,0.00,Meteo,2013-02-13 12:26:00,
2013-02-13 06:31:00,23.0,17.0,29.65,South,171,1.0,2.0,77,0.00,,,0.00,Meteo,2013-02-13 12:31:00,
2013-02-13 06:36:00,23.0,17.0,29.65,South,187,2.0,4.0,77,0.00,,,0.00,Meteo,2013-02-13 12:36:00,
2013-02-13 06:41:00,23.0,17.0,29.65,South,177,1.0,2.0,77,0.00,,,0.00,Meteo,2013-02-13 12:41:00,
2013-02-13 06:46:00,23.0,17.0,29.65,South,185,1.0,2.0,77,0.00,,,0.00,Meteo,2013-02-13 12:46:00,
2013-02-13 06:51:00,23.0,17.0,29.65,South,190,1.0,2.0,78,0.00,,,0.00,Meteo,2013-02-13 12:51:00,
2013-02-13 06:56:00,23.0,17.0,29.65,South,184,0.0,1.0,78,0.00,,,0.00,Meteo,2013-02-13 12:56:00,
2013-02-13 07:01:00,23.0,17.0,29.65,SSW,199,0.0,1.0,78,0.00,,,0.00,Meteo,2013-02-13 13:01:00,
2013-02-13 07:06:00,22.0,16.0,29.65,South,182,2.0,5.0,78,0.00,,,0.00,Meteo,2013-02-13 13:06:00,
2013-02-13 07:11:00,22.0,16.0,29.65,South,186,3.0,5.0,78,0.00,,,0.00,Meteo,2013-02-13 13:11:00,
2013-02-13 07:16:00,22.0,16.0,29.65,South,183,1.0,3.0,79,0.00,,,0.00,Meteo,2013-02-13 13:16:00,
2013-02-13 07:21:00,22.0,16.0,29.64,South,185,1.0,2.0,79,0.00,,,0.00,Meteo,2013-02-13 13:21:00,
2013-02-13 07:26:00,22.0,16.0,29.64,South,180,2.0,3.0,79,0.00,,,0.00,Meteo,2013-02-13 13:26:00,
2013-02-13 07:31:00,22.0,16.0,29.65,SW,224,1.0,3.0,79,0.00,,,0.00,Meteo,2013-02-13 13:31:00,
2013-02-13 07:37:00,22.0,16.0,29.65,SSW,200,1.0,3.0,79,0.00,,,0.00,Meteo,2013-02-13 13:37:00,
2013-02-13 07:42:00,22.0,16.0,29.65,South,181,1.0,1.0,79,0.00,,,0.00,Meteo,2013-02-13 13:42:00,
2013-02-13 07:47:00,22.0,16.0,29.65,SSW,204,2.0,3.0,79,0.00,,,0.00,Meteo,2013-02-13 13:47:00,
2013-02-13 07:52:00,22.0,16.0,29.66,SSW,196,3.0,4.0,79,0.00,,,0.00,Meteo,2013-02-13 13:52:00,
2013-02-13 07:57:00,22.0,16.0,29.65,SSW,208,2.0,4.0,79,0.00,,,0.00,Meteo,2013-02-13 13:57:00,
2013-02-13 08:02:00,23.0,17.0,29.65,SSW,213,2.0,4.0,79,0.00,,,0.00,Meteo,2013-02-13 14:02:00,
2013-02-13 08:07:00,23.0,17.0,29.65,SSW,197,4.0,7.0,78,0.00,,,0.00,Meteo,2013-02-13 14:07:00,
2013-02-13 08:12:00,23.0,17.0,29.65,South,191,3.0,5.0,77,0.00,,,0.00,Meteo,2013-02-13 14:12:00,
2013-02-13 08:17:00,23.0,17.0,29.65,South,190,3.0,6.0,77,0.00,,,0.00,Meteo,2013-02-13 14:17:00,
2013-02-13 08:22:00,23.0,17.0,29.65,SSW,208,3.0,4.0,77,0.00,,,0.00,Meteo,2013-02-13 14:22:00,
2013-02-13 08:27:00,24.0,18.0,29.65,South,186,3.0,5.0,76,0.00,,,0.00,Meteo,2013-02-13 14:27:00,
2013-02-13 08:32:00,24.0,18.0,29.65,SSW,193,3.0,7.0,76,0.00,,,0.00,Meteo,2013-02-13 14:32:00,
2013-02-13 08:37:00,24.0,18.0,29.65,SSW,206,2.0,4.0,76,0.00,,,0.00,Meteo,2013-02-13 14:37:00,
2013-02-13 08:42:00,24.0,17.0,29.65,SSW,212,3.0,5.0,75,0.00,,,0.00,Meteo,2013-02-13 14:42:00,
2013-02-13 08:47:00,24.0,17.0,29.65,SSW,203,2.0,4.0,75,0.00,,,0.00,Meteo,2013-02-13 14:47:00,
2013-02-13 08:52:00,25.0,18.0,29.65,SSW,197,3.0,5.0,75,0.00,,,0.00,Meteo,2013-02-13 14:52:00,
2013-02-13 08:57:00,25.0,18.0,29.65,SSW,194,4.0,7.0,75,0.00,,,0.00,Meteo,2013-02-13 14:57:00,
2013-02-13 09:02:00,25.0,18.0,29.65,South,190,6.0,9.0,74,0.00,,,0.00,Meteo,2013-02-13 15:02:00,
2013-02-13 09:07:00,25.0,18.0,29.65,South,189,4.0,6.0,74,0.00,,,0.00,Meteo,2013-02-13 15:07:00,
2013-02-13 09:12:00,26.0,19.0,29.65,South,180,3.0,5.0,73,0.00,,,0.00,Meteo,2013-02-13 15:12:00,
2013-02-13 09:17:00,26.0,19.0,29.64,SSW,194,4.0,7.0,73,0.00,,,0.00,Meteo,2013-02-13 15:17:00,
2013-02-13 09:22:00,26.0,18.0,29.64,SSW,199,4.0,7.0,72,0.00,,,0.00,Meteo,2013-02-13 15:22:00,
2013-02-13 09:27:00,26.0,18.0,29.64,SSW,193,3.0,5.0,72,0.00,,,0.00,Meteo,2013-02-13 15:27:00,
2013-02-13 09:32:00,26.0,18.0,29.64,SSW,194,6.0,9.0,72,0.00,,,0.00,Meteo,2013-02-13 15:32:00,
2013-02-13 09:37:00,27.0,19.0,29.64,South,181,5.0,8.0,72,0.00,,,0.00,Meteo,2013-02-13 15:37:00,
2013-02-13 09:42:00,27.0,19.0,29.64,SW,216,2.0,3.0,71,0.00,,,0.00,Meteo,2013-02-13 15:42:00,
2013-02-13 09:47:00,28.0,20.0,29.64,SSW,206,5.0,8.0,71,0.00,,,0.00,Meteo,2013-02-13 15:47:00,
2013-02-13 09:52:00,28.0,19.0,29.64,SSW,197,3.0,5.0,70,0.00,,,0.00,Meteo,2013-02-13 15:52:00,
2013-02-13 09:57:00,28.0,19.0,29.64,South,183,2.0,4.0,69,0.00,,,0.00,Meteo,2013-02-13 15:57:00,
2013-02-13 10:02:00,29.0,20.0,29.63,South,191,2.0,3.0,69,0.00,,,0.00,Meteo,2013-02-13 16:02:00,
2013-02-13 10:07:00,29.0,20.0,29.64,SSW,199,3.0,6.0,69,0.00,,,0.00,Meteo,2013-02-13 16:07:00,
2013-02-13 10:12:00,29.0,20.0,29.63,South,191,2.0,3.0,69,0.00,,,0.00,Meteo,2013-02-13 16:12:00,
2013-02-13 10:17:00,29.0,20.0,29.63,SSW,212,3.0,6.0,69,0.00,,,0.00,Meteo,2013-02-13 16:17:00,
2013-02-13 10:22:00,30.0,21.0,29.63,SSW,208,2.0,3.0,69,0.00,,,0.00,Meteo,2013-02-13 16:22:00,
2013-02-13 10:27:00,30.0,20.0,29.63,SSW,208,2.0,5.0,67,0.00,,,0.00,Meteo,2013-02-13 16:27:00,
2013-02-13 10:32:00,31.0,21.0,29.63,SSW,192,4.0,6.0,67,0.00,,,0.00,Meteo,2013-02-13 16:32:00,
2013-02-13 10:37:00,31.0,21.0,29.63,SW,224,4.0,9.0,66,0.00,,,0.00,Meteo,2013-02-13 16:37:00,
2013-02-13 10:42:00,31.0,21.0,29.62,South,190,5.0,8.0,66,0.00,,,0.00,Meteo,2013-02-13 16:42:00,
2013-02-13 10:47:00,32.0,22.0,29.62,SSW,201,4.0,8.0,66,0.00,,,0.00,Meteo,2013-02-13 16:47:00,
2013-02-13 10:52:00,32.0,22.0,29.62,SW,216,2.0,4.0,65,0.00,,,0.00,Meteo,2013-02-13 16:52:00,
2013-02-13 10:57:00,32.0,21.0,29.62,SSW,194,5.0,7.0,64,0.00,,,0.00,Meteo,2013-02-13 16:57:00,
2013-02-13 11:02:00,33.0,22.0,29.62,South,191,4.0,7.0,64,0.00,,,0.00,Meteo,2013-02-13 17:02:00,
2013-02-13 11:07:00,33.0,23.0,29.62,SSW,197,4.0,7.0,65,0.00,,,0.00,Meteo,2013-02-13 17:07:00,
2013-02-13 11:12:00,33.0,23.0,29.62,SW,219,4.0,7.0,65,0.00,,,0.00,Meteo,2013-02-13 17:12:00,
2013-02-13 11:17:00,33.0,22.0,29.62,South,190,3.0,5.0,64,0.00,,,0.00,Meteo,2013-02-13 17:17:00,
2013-02-13 11:22:00,34.0,23.0,29.62,SW,218,3.0,6.0,63,0.00,,,0.00,Meteo,2013-02-13 17:22:00,
2013-02-13 11:27:00,34.0,23.0,29.62,SSW,196,6.0,8.0,63,0.00,,,0.00,Meteo,2013-02-13 17:27:00,
2013-02-13 11:32:00,34.0,22.0,29.62,SSW,210,8.0,11.0,62,0.00,,,0.00,Meteo,2013-02-13 17:32:00,
2013-02-13 11:37:00,35.0,23.0,29.62,South,189,4.0,6.0,62,0.00,,,0.00,Meteo,2013-02-13 17:37:00,
2013-02-13 11:42:00,35.0,23.0,29.62,SSW,202,3.0,6.0,61,0.00,,,0.00,Meteo,2013-02-13 17:42:00,
2013-02-13 11:47:00,35.0,23.0,29.62,SW,214,4.0,7.0,62,0.00,,,0.00,Meteo,2013-02-13 17:47:00,
2013-02-13 11:52:00,35.0,23.0,29.62,SSW,192,5.0,8.0,62,0.00,,,0.00,Meteo,2013-02-13 17:52:00,
2013-02-13 11:57:00,36.0,24.0,29.62,SSW,198,3.0,5.0,61,0.00,,,0.00,Meteo,2013-02-13 17:57:00,
2013-02-13 12:02:00,36.0,23.0,29.62,South,190,5.0,8.0,60,0.00,,,0.00,Meteo,2013-02-13 18:02:00,
2013-02-13 12:07:00,36.0,23.0,29.61,South,182,4.0,7.0,60,0.00,,,0.00,Meteo,2013-02-13 18:07:00,
2013-02-13 12:12:00,36.0,23.0,29.61,SSW,202,3.0,5.0,60,0.00,,,0.00,Meteo,2013-02-13 18:12:00,
2013-02-13 12:17:00,37.0,24.0,29.61,SSW,209,6.0,11.0,59,0.00,,,0.00,Meteo,2013-02-13 18:17:00,
2013-02-13 12:22:00,37.0,24.0,29.61,SSW,204,3.0,5.0,59,0.00,,,0.00,Meteo,2013-02-13 18:22:00,
2013-02-13 12:27:00,37.0,24.0,29.60,South,184,3.0,4.0,59,0.00,,,0.00,Meteo,2013-02-13 18:27:00,
2013-02-13 12:32:00,38.0,25.0,29.60,SSW,202,5.0,7.0,58,0.00,,,0.00,Meteo,2013-02-13 18:32:00,
2013-02-13 12:37:00,38.0,24.0,29.60,SSW,209,4.0,9.0,57,0.00,,,0.00,Meteo,2013-02-13 18:37:00,
2013-02-13 12:42:00,38.0,24.0,29.60,SSW,194,5.0,7.0,57,0.00,,,0.00,Meteo,2013-02-13 18:42:00,
2013-02-13 12:47:00,38.0,24.0,29.60,SW,215,3.0,6.0,56,0.00,,,0.00,Meteo,2013-02-13 18:47:00,
2013-02-13 12:52:00,39.0,25.0,29.60,SSW,208,4.0,6.0,56,0.00,,,0.00,Meteo,2013-02-13 18:52:00,
2013-02-13 12:57:00,39.0,25.0,29.60,SW,219,5.0,7.0,56,0.00,,,0.00,Meteo,2013-02-13 18:57:00,
2013-02-13 13:02:00,39.0,25.0,29.60,SSW,199,3.0,5.0,56,0.00,,,0.00,Meteo,2013-02-13 19:02:00,
2013-02-13 13:07:00,40.0,26.0,29.60,South,189,3.0,7.0,56,0.00,,,0.00,Meteo,2013-02-13 19:07:00,
2013-02-13 13:12:00,40.0,25.0,29.60,SSW,192,2.0,3.0,55,0.00,,,0.00,Meteo,2013-02-13 19:12:00,
2013-02-13 13:17:00,40.0,25.0,29.59,SSW,195,3.0,4.0,55,0.00,,,0.00,Meteo,2013-02-13 19:17:00,
2013-02-13 13:22:00,41.0,26.0,29.59,South,177,3.0,4.0,55,0.00,,,0.00,Meteo,2013-02-13 19:22:00,
2013-02-13 13:27:00,41.0,26.0,29.59,SSW,210,3.0,6.0,54,0.00,,,0.00,Meteo,2013-02-13 19:27:00,
2013-02-13 13:32:00,42.0,26.0,29.59,South,189,3.0,5.0,53,0.00,,,0.00,Meteo,2013-02-13 19:32:00,
2013-02-13 13:37:00,42.0,26.0,29.59,SSW,193,1.0,3.0,53,0.00,,,0.00,Meteo,2013-02-13 19:37:00,
2013-02-13 13:42:00,42.0,26.0,29.59,SSW,210,3.0,5.0,53,0.00,,,0.00,Meteo,2013-02-13 19:42:00,
2013-02-13 13:47:00,42.0,26.0,29.58,SSW,202,3.0,7.0,53,0.00,,,0.00,Meteo,2013-02-13 19:47:00,
2013-02-13 13:52:00,43.0,27.0,29.58,South,191,2.0,4.0,52,0.00,,,0.00,Meteo,2013-02-13 19:52:00,
2013-02-13 13:57:00,43.0,27.0,29.58,SW,230,2.0,3.0,52,0.00,,,0.00,Meteo,2013-02-13 19:57:00,
2013-02-13 14:02:00,43.0,26.0,29.58,NW,309,1.0,3.0,50,0.00,,,0.00,Meteo,2013-02-13 20:02:00,
2013-02-13 14:07:00,42.0,26.0,29.58,West,268,3.0,5.0,53,0.00,,,0.00,Meteo,2013-02-13 20:07:00,
2013-02-13 14:12:00,42.0,27.0,29.58,SW,218,1.0,3.0,54,0.00,,,0.00,Meteo,2013-02-13 20:12:00,
2013-02-13 14:17:00,42.0,26.0,29.58,WNW,283,1.0,3.0,53,0.00,,,0.00,Meteo,2013-02-13 20:17:00,
2013-02-13 14:22:00,42.0,26.0,29.58,WSW,252,1.0,2.0,53,0.00,,,0.00,Meteo,2013-02-13 20:22:00,
2013-02-13 14:27:00,42.0,26.0,29.58,WNW,289,2.0,6.0,53,0.00,,,0.00,Meteo,2013-02-13 20:27:00,
2013-02-13 14:32:00,41.0,26.0,29.58,NW,322,1.0,3.0,54,0.00,,,0.00,Meteo,2013-02-13 20:32:00,
2013-02-13 14:37:00,41.0,26.0,29.58,West,269,2.0,7.0,55,0.00,,,0.00,Meteo,2013-02-13 20:37:00,
2013-02-13 14:42:00,41.0,27.0,29.58,WNW,285,1.0,5.0,56,0.00,,,0.00,Meteo,2013-02-13 20:42:00,
2013-02-13 14:47:00,40.0,26.0,29.58,WSW,253,0.0,1.0,56,0.00,,,0.00,Meteo,2013-02-13 20:47:00,
2013-02-13 14:52:00,40.0,26.0,29.58,West,266,2.0,6.0,57,0.00,,,0.00,Meteo,2013-02-13 20:52:00,
2013-02-13 14:57:00,40.0,26.0,29.58,North,0,0.0,0.0,57,0.00,,,0.00,Meteo,2013-02-13 20:57:00,
2013-02-13 15:02:00,40.0,26.0,29.59,West,272,1.0,3.0,58,0.00,,,0.00,Meteo,2013-02-13 21:02:00,
2013-02-13 15:08:00,40.0,26.0,29.58,WSW,243,2.0,4.0,58,0.00,,,0.00,Meteo,2013-02-13 21:08:00,
2013-02-13 15:13:00,40.0,26.0,29.58,West,270,1.0,3.0,57,0.00,,,0.00,Meteo,2013-02-13 21:13:00,
2013-02-13 15:18:00,40.0,26.0,29.58,WSW,237,1.0,2.0,56,0.00,,,0.00,Meteo,2013-02-13 21:18:00,
2013-02-13 15:23:00,41.0,27.0,29.58,SW,214,1.0,3.0,57,0.00,,,0.00,Meteo,2013-02-13 21:23:00,
2013-02-13 15:28:00,41.0,27.0,29.59,West,265,2.0,3.0,56,0.00,,,0.00,Meteo,2013-02-13 21:28:00,
2013-02-13 15:33:00,41.0,27.0,29.58,South,188,0.0,1.0,57,0.00,,,0.00,Meteo,2013-02-13 21:33:00,
2013-02-13 15:38:00,41.0,27.0,29.58,SW,232,0.0,2.0,57,0.00,,,0.00,Meteo,2013-02-13 21:38:00,
2013-02-13 15:43:00,41.0,27.0,29.59,West,279,0.0,1.0,57,0.00,,,0.00,Meteo,2013-02-13 21:43:00,
2013-02-13 15:48:00,40.0,26.0,29.59,WNW,302,2.0,4.0,57,0.00,,,0.00,Meteo,2013-02-13 21:48:00,
2013-02-13 15:53:00,39.0,25.0,29.59,ENE,63,0.0,2.0,58,0.00,,,0.00,Meteo,2013-02-13 21:53:00,
2013-02-13 15:58:00,38.0,25.0,29.59,NNE,12,3.0,4.0,60,0.00,,,0.00,Meteo,2013-02-13 21:58:00,
2013-02-13 16:03:00,37.0,25.0,29.60,NE,41,2.0,4.0,62,0.00,,,0.00,Meteo,2013-02-13 22:03:00,
2013-02-13 16:08:00,37.0,26.0,29.60,NE,38,1.0,2.0,63,0.00,,,0.00,Meteo,2013-02-13 22:08:00,
2013-02-13 16:13:00,37.0,26.0,29.60,ENE,67,2.0,4.0,64,0.00,,,0.00,Meteo,2013-02-13 22:13:00,
2013-02-13 16:18:00,36.0,25.0,29.60,NE,35,2.0,4.0,64,0.00,,,0.00,Meteo,2013-02-13 22:18:00,
2013-02-13 16:23:00,36.0,25.0,29.60,NE,43,3.0,4.0,65,0.00,,,0.00,Meteo,2013-02-13 22:23:00,
2013-02-13 16:28:00,36.0,26.0,29.60,NE,40,2.0,3.0,66,0.00,,,0.00,Meteo,2013-02-13 22:28:00,
2013-02-13 16:33:00,35.0,25.0,29.60,NE,55,3.0,4.0,66,0.00,,,0.00,Meteo,2013-02-13 22:33:00,
2013-02-13 16:38:00,35.0,25.0,29.60,NE,38,2.0,3.0,66,0.00,,,0.00,Meteo,2013-02-13 22:38:00,
2013-02-13 16:43:00,35.0,26.0,29.60,NE,34,2.0,3.0,68,0.00,,,0.00,Meteo,2013-02-13 22:43:00,
2013-02-13 16:48:00,35.0,26.0,29.60,NNE,31,2.0,3.0,69,0.00,,,0.00,Meteo,2013-02-13 22:48:00,
2013-02-13 16:53:00,34.0,25.0,29.60,NNE,14,2.0,4.0,69,0.00,,,0.00,Meteo,2013-02-13 22:53:00,
2013-02-13 16:58:00,34.0,25.0,29.61,NNE,25,2.0,3.0,70,0.00,,,0.00,Meteo,2013-02-13 22:58:00,
2013-02-13 17:03:00,34.0,25.0,29.61,NE,50,3.0,4.0,70,0.00,,,0.00,Meteo,2013-02-13 23:03:00,
2013-02-13 17:08:00,34.0,25.0,29.61,NNE,33,2.0,3.0,70,0.00,,,0.00,Meteo,2013-02-13 23:08:00,
2013-02-13 17:13:00,34.0,26.0,29.61,NNE,23,2.0,4.0,71,0.00,,,0.00,Meteo,2013-02-13 23:13:00,
2013-02-13 17:18:00,34.0,25.0,29.61,North,0,1.0,2.0,70,0.00,,,0.00,Meteo,2013-02-13 23:18:00,
2013-02-13 17:23:00,34.0,25.0,29.61,North,360,1.0,3.0,69,0.00,,,0.00,Meteo,2013-02-13 23:23:00,
2013-02-13 17:28:00,34.0,25.0,29.62,North,5,1.0,3.0,69,0.00,,,0.00,Meteo,2013-02-13 23:28:00,
2013-02-13 17:33:00,34.0,25.0,29.62,North,4,1.0,2.0,70,0.00,,,0.00,Meteo,2013-02-13 23:33:00,
2013-02-13 17:38:00,33.0,25.0,29.62,NNE,17,1.0,2.0,71,0.00,,,0.00,Meteo,2013-02-13 23:38:00,
2013-02-13 17:43:00,33.0,25.0,29.62,North,0,1.0,2.0,71,0.00,,,0.00,Meteo,2013-02-13 23:43:00,
2013-02-13 17:48:00,33.0,25.0,29.62,NNE,15,2.0,3.0,72,0.00,,,0.00,Meteo,2013-02-13 23:48:00,
2013-02-13 17:53:00,33.0,25.0,29.62,NNE,18,3.0,6.0,71,0.00,,,0.00,Meteo,2013-02-13 23:53:00,
2013-02-13 17:58:00,32.0,24.0,29.62,NE,37,4.0,7.0,73,0.00,,,0.00,Meteo,2013-02-13 23:58:00,
2013-02-13 18:03:00,31.0,24.0,29.62,NE,46,5.0,8.0,76,0.00,,,0.00,Meteo,2013-02-14 00:03:00,
2013-02-13 18:08:00,31.0,25.0,29.63,NNE,30,4.0,5.0,77,0.00,,,0.00,Meteo,2013-02-14 00:08:00,
2013-02-13 18:13:00,31.0,25.0,29.63,NNE,30,4.0,6.0,78,0.00,,,0.00,Meteo,2013-02-14 00:13:00,
2013-02-13 18:18:00,30.0,24.0,29.63,NNE,31,3.0,4.0,78,0.00,,,0.00,Meteo,2013-02-14 00:18:00,
2013-02-13 18:23:00,30.0,24.0,29.63,NNE,16,2.0,3.0,78,0.00,,,0.00,Meteo,2013-02-14 00:23:00,
2013-02-13 18:28:00,30.0,24.0,29.63,NNE,33,3.0,5.0,79,0.00,,,0.00,Meteo,2013-02-14 00:28:00,
2013-02-13 18:33:00,30.0,24.0,29.64,NE,43,3.0,4.0,79,0.00,,,0.00,Meteo,2013-02-14 00:33:00,
2013-02-13 18:38:00,30.0,24.0,29.64,ENE,70,5.0,7.0,79,0.00,,,0.00,Meteo,2013-02-14 00:38:00,
2013-02-13 18:43:00,30.0,24.0,29.64,NE,52,4.0,5.0,79,0.00,,,0.00,Meteo,2013-02-14 00:43:00,
2013-02-13 18:48:00,30.0,24.0,29.64,ENE,65,5.0,9.0,79,0.00,,,0.00,Meteo,2013-02-14 00:48:00,
2013-02-13 18:53:00,29.0,23.0,29.64,ENE,68,4.0,6.0,79,0.00,,,0.00,Meteo,2013-02-14 00:53:00,
2013-02-13 18:58:00,29.0,23.0,29.64,NE,56,3.0,4.0,79,0.00,,,0.00,Meteo,2013-02-14 00:58:00,
2013-02-13 19:03:00,29.0,23.0,29.64,NE,56,2.0,4.0,79,0.00,,,0.00,Meteo,2013-02-14 01:03:00,
2013-02-13 19:08:00,29.0,23.0,29.64,ENE,69,5.0,7.0,79,0.00,,,0.00,Meteo,2013-02-14 01:08:00,
2013-02-13 19:13:00,29.0,23.0,29.65,NE,54,4.0,6.0,79,0.00,,,0.00,Meteo,2013-02-14 01:13:00,
2013-02-13 19:18:00,29.0,23.0,29.64,ENE,59,2.0,4.0,79,0.00,,,0.00,Meteo,2013-02-14 01:18:00,
2013-02-13 19:23:00,29.0,23.0,29.65,NE,56,3.0,5.0,79,0.00,,,0.00,Meteo,2013-02-14 01:23:00,
2013-02-13 19:28:00,29.0,23.0,29.65,ENE,58,2.0,3.0,79,0.00,,,0.00,Meteo,2013-02-14 01:28:00,
2013-02-13 19:33:00,29.0,23.0,29.65,ENE,59,3.0,5.0,79,0.00,,,0.00,Meteo,2013-02-14 01:33:00,
2013-02-13 19:38:00,29.0,24.0,29.65,East,83,1.0,2.0,80,0.00,,,0.00,Meteo,2013-02-14 01:38:00,
2013-02-13 19:43:00,29.0,24.0,29.65,ENE,64,2.0,3.0,80,0.00,,,0.00,Meteo,2013-02-14 01:43:00,
2013-02-13 19:48:00,29.0,24.0,29.65,NE,42,1.0,2.0,80,0.00,,,0.00,Meteo,2013-02-14 01:48:00,
2013-02-13 19:53:00,29.0,24.0,29.65,NNE,28,1.0,2.0,80,0.00,,,0.00,Meteo,2013-02-14 01:53:00,
2013-02-13 19:58:00,29.0,24.0,29.65,NNE,27,1.0,2.0,81,0.00,,,0.00,Meteo,2013-02-14 01:58:00,
2013-02-13 20:03:00,29.0,24.0,29.65,NE,55,1.0,2.0,82,0.00,,,0.00,Meteo,2013-02-14 02:03:00,
2013-02-13 20:08:00,29.0,24.0,29.65,NE,52,0.0,1.0,82,0.00,,,0.00,Meteo,2013-02-14 02:08:00,
2013-02-13 20:13:00,29.0,24.0,29.65,NE,52,0.0,1.0,83,0.00,,,0.00,Meteo,2013-02-14 02:13:00,
2013-02-13 20:18:00,29.0,24.0,29.65,East,80,1.0,2.0,83,0.00,,,0.00,Meteo,2013-02-14 02:18:00,
2013-02-13 20:23:00,29.0,24.0,29.65,ENE,64,1.0,2.0,83,0.00,,,0.00,Meteo,2013-02-14 02:23:00,
2013-02-13 20:29:00,29.0,25.0,29.65,North,0,0.0,0.0,84,0.00,,,0.00,Meteo,2013-02-14 02:29:00,
2013-02-13 20:34:00,29.0,25.0,29.65,North,0,0.0,0.0,84,0.00,,,0.00,Meteo,2013-02-14 02:34:00,
2013-02-13 20:39:00,29.0,25.0,29.65,North,0,0.0,0.0,84,0.00,,,0.00,Meteo,2013-02-14 02:39:00,
2013-02-13 20:44:00,29.0,25.0,29.65,North,0,0.0,0.0,84,0.00,,,0.00,Meteo,2013-02-14 02:44:00,
2013-02-13 20:49:00,29.0,25.0,29.65,North,0,0.0,0.0,84,0.00,,,0.00,Meteo,2013-02-14 02:49:00,
2013-02-13 20:54:00,29.0,25.0,29.65,ENE,71,1.0,2.0,84,0.00,,,0.00,Meteo,2013-02-14 02:54:00,
2013-02-13 20:59:00,29.0,25.0,29.65,North,0,0.0,0.0,84,0.00,,,0.00,Meteo,2013-02-14 02:59:00,
2013-02-13 21:04:00,29.0,25.0,29.65,North,0,0.0,0.0,84,0.00,,,0.00,Meteo,2013-02-14 03:04:00,
2013-02-13 21:09:00,29.0,25.0,29.65,North,0,0.0,0.0,84,0.00,,,0.00,Meteo,2013-02-14 03:09:00,
2013-02-13 21:14:00,29.0,25.0,29.65,North,0,0.0,0.0,84,0.00,,,0.00,Meteo,2013-02-14 03:14:00,
2013-02-13 21:19:00,29.0,25.0,29.65,North,0,0.0,0.0,85,0.00,,,0.00,Meteo,2013-02-14 03:19:00,
2013-02-13 21:24:00,29.0,25.0,29.65,North,0,0.0,0.0,84,0.00,,,0.00,Meteo,2013-02-14 03:24:00,
2013-02-13 21:29:00,29.0,25.0,29.65,North,0,0.0,0.0,84,0.00,,,0.00,Meteo,2013-02-14 03:29:00,
2013-02-13 21:34:00,29.0,25.0,29.65,East,82,1.0,2.0,84,0.00,,,0.00,Meteo,2013-02-14 03:34:00,
2013-02-13 21:39:00,29.0,25.0,29.65,North,0,0.0,0.0,84,0.00,,,0.00,Meteo,2013-02-14 03:39:00,
2013-02-13 21:44:00,29.0,25.0,29.65,East,84,0.0,1.0,84,0.00,,,0.00,Meteo,2013-02-14 03:44:00,
2013-02-13 21:49:00,29.0,25.0,29.65,North,0,0.0,0.0,84,0.00,,,0.00,Meteo,2013-02-14 03:49:00,
2013-02-13 21:56:00,29.0,25.0,29.65,North,0,0.0,0.0,84,0.00,,,0.00,Meteo,2013-02-14 03:56:00,
2013-02-13 22:02:00,29.0,25.0,29.65,North,0,0.0,0.0,84,0.00,,,0.00,Meteo,2013-02-14 04:02:00,
2013-02-13 22:08:00,29.0,24.0,29.65,ENE,71,1.0,1.0,83,0.00,,,0.00,Meteo,2013-02-14 04:08:00,
2013-02-13 22:13:00,29.0,24.0,29.65,North,0,0.0,0.0,82,0.00,,,0.00,Meteo,2013-02-14 04:13:00,
2013-02-13 22:18:00,29.0,24.0,29.65,ENE,69,0.0,2.0,82,0.00,,,0.00,Meteo,2013-02-14 04:18:00,
2013-02-13 22:23:00,29.0,24.0,29.65,North,0,0.0,0.0,81,0.00,,,0.00,Meteo,2013-02-14 04:23:00,
2013-02-13 22:28:00,28.0,23.0,29.64,North,0,0.0,0.0,81,0.00,,,0.00,Meteo,2013-02-14 04:28:00,
2013-02-13 22:33:00,28.0,23.0,29.64,North,0,0.0,0.0,81,0.00,,,0.00,Meteo,2013-02-14 04:33:00,
2013-02-13 22:38:00,28.0,23.0,29.65,North,0,0.0,0.0,81,0.00,,,0.00,Meteo,2013-02-14 04:38:00,
2013-02-13 22:43:00,28.0,23.0,29.65,North,0,0.0,0.0,82,0.00,,,0.00,Meteo,2013-02-14 04:43:00,
2013-02-13 22:48:00,28.0,23.0,29.65,North,0,0.0,0.0,81,0.00,,,0.00,Meteo,2013-02-14 04:48:00,
2013-02-13 22:53:00,28.0,23.0,29.65,North,0,0.0,0.0,81,0.00,,,0.00,Meteo,2013-02-14 04:53:00,
2013-02-13 22:58:00,28.0,23.0,29.65,North,0,0.0,0.0,82,0.00,,,0.00,Meteo,2013-02-14 04:58:00,
2013-02-13 23:00:00,28.0,23.0,29.65,North,0,0.0,0.0,82,0.00,,,0.00,Meteo,2013-02-14 05:00:00,
2013-02-13 23:02:00,28.0,23.0,29.65,North,0,0.0,0.0,82,0.00,,,0.00,Meteo,2013-02-14 05:02:00,
2013-02-13 23:05:00,28.0,23.0,29.65,North,0,0.0,0.0,82,0.00,,,0.00,Meteo,2013-02-14 05:05:00,
2013-02-13 23:10:00,28.0,23.0,29.65,North,0,0.0,0.0,82,0.00,,,0.00,Meteo,2013-02-14 05:10:00,
2013-02-13 23:13:00,28.0,23.0,29.65,North,0,0.0,0.0,82,0.00,,,0.00,Meteo,2013-02-14 05:13:00,
2013-02-13 23:18:00,28.0,23.0,29.65,North,0,0.0,0.0,82,0.00,,,0.00,Meteo,2013-02-14 05:18:00,
2013-02-13 23:23:00,28.0,23.0,29.65,North,0,0.0,0.0,82,0.00,,,0.00,Meteo,2013-02-14 05:23:00,
2013-02-13 23:28:00,28.0,23.0,29.65,NNE,25,0.0,2.0,82,0.00,,,0.00,Meteo,2013-02-14 05:28:00,
2013-02-13 23:33:00,28.0,23.0,29.65,North,0,0.0,0.0,82,0.00,,,0.00,Meteo,2013-02-14 05:33:00,
2013-02-13 23:38:00,28.0,23.0,29.65,North,0,0.0,0.0,82,0.00,,,0.00,Meteo,2013-02-14 05:38:00,
2013-02-13 23:43:00,28.0,23.0,29.65,NNE,24,0.0,2.0,82,0.00,,,0.00,Meteo,2013-02-14 05:43:00,
2013-02-13 23:48:00,28.0,23.0,29.65,North,0,0.0,0.0,82,0.00,,,0.00,Meteo,2013-02-14 05:48:00,
2013-02-13 23:53:00,28.0,23.0,29.65,North,0,0.0,0.0,82,0.00,,,0.00,Meteo,2013-02-14 05:53:00,
2013-02-13 23:58:00,27.0,22.0,29.65,North,0,0.0,0.0,82,0.00,,,0.00,Meteo,2013-02-14 05:58:00,